{"data":{"norad_id":61752,"epoch":"2026-05-25T03:16:46.693920Z","epoch_age_seconds":59863,"freshness":"FRESH","line1":"1 61752U 24199T   26145.13665155  .00001835  00000+0  16183-3 0  9994","line2":"2 61752  97.3252 345.9812 0007070 135.0189 225.1608 14.97533430131675","mean_motion":14.9753343,"eccentricity":0.000707,"inclination_deg":97.3252,"raan_deg":345.9812,"arg_perigee_deg":135.0189,"mean_anomaly_deg":225.1608,"bstar":0.00016183,"rev_number":13167,"period_min":96.158120490172,"perigee_km":569.60478109107,"apogee_km":579.43583852714,"semimajor_km":6952.6573098091,"source":"CELESTRAK","updated_at":"2026-05-25T13:38:02.553012Z"}}